Weather History for GMMZ - October, 2013

Change the Weather History Date:

Tuesday, October 1, 2013

  Actual Average Record
Temperature  
Mean Temperature 78 °F -  
Max Temperature 91 °F 80 °F - ()
Min Temperature 64 °F 54 °F - ()
Cooling Degree Days 12    
Growing Degree Days 28 (Base 50)    
Moisture  
Dew Point 36 °F    
Average Humidity 20    
Maximum Humidity 40    
Minimum Humidity 6    
Precipitation  
Precipitation 0.00 in 0.02 in - ()
Sea Level Pressure  
Sea Level Pressure 30.04 in    
Wind  
Wind Speed 3 mph ()    
Max Wind Speed 9 mph    
Max Gust Speed -    
Visibility 12.0 miles    
Events      
T = Trace of Precipitation, MM = Missing Value Source: Averaged Metar Reports

Daily Weather History Graph

Daily Weather History Graph

Search for Another Location

Airport or City:

Trip Planner

Search our weather history database for the weather conditions in past years. The results will help you decide how hot, cold, wet, or windy it might be!

Date:

Astronomy

Oct. 01, 2013 Rise Set
Actual Time 7:21 AM WEST 7:12 PM WEST
Civil Twilight 6:57 AM WEST 7:36 PM WEST
Nautical Twilight 6:29 AM WEST 8:04 PM WEST
Astronomical Twilight 6:01 AM WEST 8:32 PM WEST
Moon 3:54 AM WEST (10/1) 4:58 PM WEST (10/1)
Length of Visible Light 12h 39m
Length of Day
11h 51m
Waning Crescent, 13% of the Moon is Illuminated
Oct 1
Waning Crescent
Oct 5
New
Oct 12
First Quarter
Oct 19
Full
Oct 27
Last Quarter

Hourly Weather History & Observations

Time (WEST) Temp. Dew Point Humidity Pressure Visibility Wind Dir Wind Speed Gust Speed Precip Events Conditions
12:00 AM 75.2 °F 37.4 °F 25% 30.06 in - Variable 2.3 mph - N/A   Clear
1:00 AM 75 °F 38 °F 16%  in 12 mi West 1.2 mph - -   Clear
1:00 AM 75.2 °F 37.4 °F 25% 30.06 in - Variable 1.2 mph - N/A   Clear
2:00 AM 73.4 °F 37.4 °F 27% 30.06 in - Variable 3.5 mph - N/A   Clear
3:00 AM 71.6 °F 37.4 °F 29% 30.04 in - WSW 4.6 mph - N/A   Clear
4:00 AM 72 °F 37 °F 17%  in 12 mi WSW 2.3 mph - -   Clear
4:00 AM 71.6 °F 37.4 °F 29% 30.04 in - Variable 2.3 mph - N/A   Clear
5:00 AM 66.2 °F 37.4 °F 35% 30.04 in - Calm Calm - N/A   Clear
6:00 AM 66.2 °F 37.4 °F 35% 30.04 in - Variable 3.5 mph - N/A   Clear
7:00 AM 66 °F 39 °F 26%  in 12 mi West 3.5 mph - -   Clear
7:00 AM 66.2 °F 39.2 °F 37% 30.06 in - Variable 3.5 mph - N/A   Clear
8:00 AM 66.2 °F 41.0 °F 40% 30.06 in - West 5.8 mph - N/A   Clear
9:00 AM 68.0 °F 39.2 °F 35% 30.09 in - Variable 1.2 mph - N/A   Clear
10:00 AM 75 °F 40 °F 18%  in 12 mi NW 1.2 mph - -  
10:00 AM 75.2 °F 39.2 °F 27% 30.09 in - Variable 2.3 mph - N/A   Clear
11:00 AM 80.6 °F 39.2 °F 23% 30.09 in - Variable 3.5 mph - N/A   Clear
12:00 PM 86.0 °F 37.4 °F 18% 30.09 in - Variable 2.3 mph - N/A   Clear
1:00 PM 87 °F 35 °F 8%  in 12 mi East 2.3 mph - -  
1:00 PM 87.8 °F 35.6 °F 16% 30.06 in - Variable 2.3 mph - N/A   Clear
2:00 PM 89.6 °F 33.8 °F 14% 30.04 in - Variable 2.3 mph - N/A   Clear
3:00 PM 89.6 °F 32.0 °F 13% 30.01 in - East 9.2 mph - N/A   Clear
4:00 PM 90 °F 33 °F 6%  in 12 mi ENE 5.8 mph - -  
4:00 PM 89.6 °F 33.8 °F 14% 30.01 in - ENE 5.8 mph - N/A   Clear
5:00 PM 91.4 °F 33.8 °F 13% 29.98 in - ENE 8.1 mph - N/A   Clear
6:00 PM 89.6 °F 32.0 °F 13% 29.98 in - ENE 5.8 mph - N/A   Clear
7:00 PM 89 °F 34 °F 7%  in 12 mi ENE 6.9 mph - -  
7:00 PM 89.6 °F 33.8 °F 14% 29.98 in - ENE 6.9 mph - N/A   Clear
8:00 PM 87.8 °F 33.8 °F 15% 29.98 in - East 8.1 mph - N/A   Clear
9:00 PM 84.2 °F 33.8 °F 16% 30.01 in - East 5.8 mph - N/A   Clear
10:00 PM 83 °F 32 °F 8%  in 12 mi ESE 4.6 mph - -  
10:00 PM 82.4 °F 32.0 °F 16% 30.01 in - ESE 5.8 mph - N/A   Clear
11:00 PM 80.6 °F 33.8 °F 18% 30.01 in - Variable 3.5 mph - N/A   Clear